This demonstration page uses our WeatherBlox Daily Observations layout. Learn more.

Left ArrowRight Arrow

33.92427, -84.37854

Hourly Observations for November 30, 2021

Temp ( °F °C ) Dew Point ( °F °C ) Humidity (%) Winds ( mph kmh ) Pressure ( in mb ) Visibility ( mi km ) Precip ( " mm )
12:53 am 00:53 Clear 33 0.6 23 -5 66 66 N N/A 30.16 1022 10 16 N/A
1:53 am 01:53 Clear 33 0.6 22 -5.6 64 64 N N/A 30.17 1022 10 16 N/A
2:53 am 02:53 Clear 32 undefined 23 -5 69 69 N N/A 30.19 1022 10 16 N/A
3:53 am 03:53 Clear 31 -0.6 25 -3.9 79 79 N N/A 30.18 1022 10 16 N/A
4:53 am 04:53 Clear 30 -1.1 25 -3.9 82 82 N N/A 30.18 1022 10 16 N/A
5:53 am 05:53 Clear 30 -1.1 24 -4.4 79 79 N N/A 30.21 1023 10 16 N/A
6:53 am 06:53 Clear 29 -1.7 25 -3.9 85 85 N N/A 30.22 1023 10 16 N/A
7:53 am 07:53 Sunny 30 -1.1 26 -3.3 85 85 N N/A 30.23 1024 9 14 N/A
8:53 am 08:53 Sunny 39 3.9 29 -1.7 67 67 S 3 6 30.22 1024 10 16 N/A
9:53 am 09:53 Sunny 48 8.9 26 -3.3 42 42 WSW 6 9 30.22 1023 10 16 N/A
10:53 am 10:53 Sunny 53 11.7 28 -2.2 38 38 W 7 11 30.22 1023 10 16 N/A
11:53 am 11:53 Sunny 58 14.4 31 -0.6 36 36 W 7 11 30.19 1023 10 16 N/A
12:53 pm 12:53 Sunny 61 16.1 34 1.1 36 36 WSW 8 13 30.17 1022 10 16 N/A
1:53 pm 13:53 Sunny 63 17.2 36 2.2 37 37 W 8 13 30.15 1021 10 16 N/A
2:53 pm 14:53 Sunny 64 17.8 37 2.8 37 37 W 9 15 30.14 1021 10 16 N/A
3:53 pm 15:53 Sunny 64 17.8 38 3.3 38 38 W 10 17 30.15 1021 10 16 N/A
4:53 pm 16:53 Sunny 62 16.7 38 3.3 41 41 W 6 9 30.16 1021 10 16 N/A
5:53 pm 17:53 Clear 57 13.9 38 3.3 49 49 WSW 5 7 30.17 1022 10 16 N/A
6:53 pm 18:53 Clear 49 9.4 38 3.3 66 66 N N/A 30.19 1023 10 16 N/A
7:53 pm 19:53 Clear 49 9.4 38 3.3 66 66 N N/A 30.20 1023 10 16 N/A
8:53 pm 20:53 Clear 46 7.8 39 3.9 77 77 N N/A 30.19 1023 10 16 N/A
9:53 pm 21:53 Clear 42 5.6 37 2.8 82 82 N N/A 30.20 1023 10 16 N/A
10:53 pm 22:53 Clear 42 5.6 38 3.3 85 85 N N/A 30.19 1022 10 16 N/A
11:53 pm 23:53 Clear 42 5.6 38 3.3 85 85 N N/A 30.19 1022 10 16 N/A

Powered by AerisWeather